Location: Eppenbrunn
(49.1158°N, 7.5601°E)
Time: 16:38:46
(UTC+00:00)

IGS 5A - Pass Details

Date: 18 August 2020
Orbit: 583 x 588 km, 97.6° (Epoch: 26 September)

Event Time Altitude Azimuth Distance (km) Brightness Sun altitude
Exits shadow 19:14:08 - 112° (ESE) 2,128 5.6 -6.0°
Reaches altitude 10° 19:14:49 10° 106° (ESE) 1,917 5.4 -6.1°
Maximum altitude 19:17:42 19° 62° (ENE) 1,446 5.2 -6.5°
Drops below altitude 10° 19:20:36 10° 18° (NNE) 1,927 6.2 -6.9°
Sets 19:23:17 0° 360° (N) 2,832 7.4 -7.3°
